DIAMANT DEB, 2684

Orbit data source: Space-Track

DIAMANT DEB, 2684 is space debris in LEO originally from a launch on Wed, 15 Feb 1967 UTC launched from the Hamma Guira Space Track Range (HGSTR). Debris objects in space refer to the collection of defunct objects orbiting the Earth. Examples of debris include non-operational satellites, rocket bodies, and fragments generated from explosions, collisions, or faulty payload assembly.

Loading next visibility...
Identifier
2684, 1967-014C
Orbit
LEO
Last TLE update
2 days ago
Origin
Manufacturer
Unknown
Mission
Spacecraft
Bus & Motor
Unknown
Mass
Unknown
Launch date (UTC)
1967-02-15 (58 years ago)
Launch vehicle
Unknown
Launch site
Hamma Guira Space Track Range (HGSTR)
Object type
Payload
Rocket body
Debris
Shape & HBR
Unknown
Radar Cross Section
Small (<0.1 m²)

Expand to show TLE details & history

TLE from 2 days ago
0 DIAMANT DEB
1 02684U 67014C   25192.87893951  .00001042  00000-0  27160-3 0  9993
2 02684  39.9559 253.7205 0452587 108.1565 256.9004 14.06487684893018
Epoch: 2025-07-11T21:05Z
TLE epoch observation values (Epoch: 2025-07-11T21:05:40.373Z)
Latitude
-0.00005°
Longitude
7.27768°
Altitude
959.091 km
Speed
7.329 km/s
True Right ascension
16h 54m 52s
True Declination
0° 00' 00"
Sunlit
Object was in full shadow at epoch
Visualization orbit readout
Latitude
-13.8714°
Longitude
-17.76385°
Altitude
1,118.57 km
Speed
7.17 km/s
Apparent Right ascension
14h 11m 53s
Apparent Declination
-27° 00' 37"
Sunlit
Object is in daylight
Visualization observer readout
Local Sidereal Time
00:37:00
Azimuth
296.032° NW
Elevation
-66.493°
Doppler factor
1
Orbital elements
Apogee altitude
1,201.956 km
Perigee altitude
545.534 km
Semi-major axis
7,251.882 km
Eccentricity
0.04526
Inclination
39.9559°
RAAN
253.7205°
Arg. of periapsis
108.1565°
True anomaly
Unknown
Mean anomaly
256.9004°
Eccentric anomaly
Unknown
Mean motion
3.51453 °/min
Orbital period
102.43 mins
BSTAR
0.0002716
Loading maneuver chart data...
Loading SW <> Apogee altitude chart data...
Loading historical data...
Loading historical data...
Loading historical data...
Loading historical data...
Loading historical data...
Loading historical data...
Loading historical data...

DIAMANT DEB Visibility forecast

Observer location: undefined°, undefined°

Span
Click to sort rows by Start time (UTC) header in descending order
Start Az.
Max El. time (UTC)
Max El. Az.
Max El.
End time (UTC)
End Az.
6 mins2025-07-13 12:47:57.393Z261.045° W2025-07-13 12:50:57.393Z202.273° SSW24.529°2025-07-13 12:53:57.393Z151.069° SSE
5 mins2025-07-14 05:30:57.393Z170.423° S2025-07-14 05:32:57.393Z146.429° SSE15.763°2025-07-14 05:35:57.393Z110.012° ESE
7 mins2025-07-14 07:16:57.393Z225.908° WSW2025-07-14 07:19:57.393Z178.878° S35.845°2025-07-14 07:23:57.393Z89.201° E
7 mins2025-07-14 09:04:57.393Z264.207° W2025-07-14 09:07:57.393Z257.893° W44.624°2025-07-14 09:11:57.393Z86.299° E
6 mins2025-07-14 10:52:57.393Z274.478° WNW2025-07-14 10:55:57.393Z187.847° SSW43.23°2025-07-14 10:58:57.393Z112.372° ESE
|